EW3176 Weather Reports


Display with metric or nautical units.
time (UTC)temp
F
wind
direction
speed
MPH
gust
MPH
rain 1hr
in
rain 24hr
in
rain mn
in
humidity
%
barometer
mb
20260831182522 94 0.0 3.0 0.00 0.00 0.00 51 1022.4
20260831181523 95 68 1.0 3.0 0.00 0.00 0.00 47 1022.4
20260831180521 95 0.0 2.0 0.00 0.00 0.00 53 1022.5
20260831175545 93 68 1.0 4.0 0.00 0.00 0.00 53 1022.6
20260831174523 94 68 1.0 3.0 0.00 0.00 0.00 55 1022.6
20260831173522 94 45 1.0 4.0 0.00 0.00 0.00 56 1022.7
20260831172522 94 0.0 4.0 0.00 0.00 0.00 59 1022.7
20260831171522 94 0.0 1.0 0.00 0.00 0.00 59 1022.7
20260831170522 94 0.0 1.0 0.00 0.00 0.00 60 1022.9
20260831165522 94 0.0 2.0 0.00 0.00 0.00 60 1023.0
20260831164521 94 0.0 3.0 0.00 0.00 0.00 63 1023.0
20260831163521 94 0.0 1.0 0.00 0.00 0.00 63 1023.0
20260831162522 92 0.0 2.0 0.00 0.00 0.00 62 1023.1
20260831161523 92 0.0 2.0 0.00 0.00 0.00 61 1023.3
20260831160521 94 0.0 4.0 0.00 0.00 0.00 63 1023.3
20260831155521 93 0.0 2.0 0.00 0.00 0.00 63 1023.5
20260831154542 92 0.0 1.0 0.00 0.00 0.00 67 1023.5
20260831153522 92 0.0 2.0 0.00 0.00 0.00 67 1023.8
20260831152521 91 0.0 2.0 0.00 0.00 0.00 67 1023.7
20260831151601 91 0.0 1.0 0.00 0.00 0.00 68 1023.8
20260831150542 91 0.0 1.0 0.00 0.00 0.00 68 1023.8
20260831145521 91 0.0 1.0 0.00 0.00 0.00 68 1023.8
20260831144521 90 0.0 1.0 0.00 0.00 0.00 68 1023.9
20260831143544 90 0.0 2.0 0.00 0.00 0.00 70 1023.8
20260831142521 89 338 1.0 3.0 0.00 0.00 0.00 70 1023.7
20260831141521 89 0.0 2.0 0.00 0.00 0.00 74 1023.6
20260831140521 89 0.0 1.0 0.00 0.00 0.00 73 1023.6
20260831135521 88 0.0 1.0 0.00 0.00 0.00 74 1023.5
20260831134521 86 0.0 2.0 0.00 0.00 0.00 76 1023.5
20260831133521 86 0.0 1.0 0.00 0.00 0.00 76 1023.6
20260831132523 84 315 1.0 3.0 0.00 0.00 0.00 80 1023.6
20260831131529 83 0.0 1.0 0.00 0.00 0.00 83 1023.5
20260831130522 82 0.0 2.0 0.00 0.00 0.00 84 1023.3
20260831125521 80 0.0 2.0 0.00 0.00 0.00 87 1023.3
20260831124521 78 0.0 3.0 0.00 0.00 0.00 91 1023.5
20260831123542 75 23 1.0 4.0 0.00 0.00 0.00 94 1023.5
20260831122522 74 0.0 2.0 0.00 0.00 0.00 96 1023.5
20260831121521 73 0.0 0.0 0.00 0.00 0.00 96 1023.2
20260831120521 73 0.0 1.0 0.00 0.00 0.00 97 1023.5
20260831120020 73 0.0 1.0 0.00 0.00 0.00 97 1023.4
20260831115041 72 0.0 0.0 0.00 0.00 0.00 97 1023.5
20260831114021 72 0.0 0.0 0.00 0.00 0.00 99 1023.5
20260831113020 71 0.0 0.0 0.00 0.00 0.00 99 1023.3
20260831112021 69 0.0 0.0 0.00 0.00 0.00 98 1023.2
20260831111021 69 0.0 0.0 0.00 0.00 0.00 98 1023.2
20260831110041 69 0.0 0.0 0.00 0.00 0.00 98 1023.2
20260831105520 69 0.0 0.0 0.00 0.00 0.00 98 1023.2
20260831104520 69 0.0 0.0 0.00 0.00 0.00 98 1023.1
20260831103521 69 0.0 0.0 0.00 0.00 0.00 98 1023.0
20260831102520 69 0.0 0.0 0.00 0.00 0.00 98 1022.9
20260831101520 69 0.0 0.0 0.00 0.00 0.00 98 1022.9
20260831100521 69 0.0 0.0 0.00 0.00 0.00 97 1023.1
20260831095523 69 0.0 0.0 0.00 0.00 0.00 97 1023.0
20260831094521 70 0.0 0.0 0.00 0.00 0.00 97 1022.9
20260831093541 70 0.0 0.0 0.00 0.00 0.00 97 1022.9
20260831092520 70 0.0 0.0 0.00 0.00 0.00 98 1022.9
20260831091521 70 0.0 0.0 0.00 0.00 0.00 97 1022.7
20260831090521 70 0.0 0.0 0.00 0.00 0.00 97 1022.7
20260831085520 70 0.0 0.0 0.00 0.00 0.00 97 1022.6
20260831084520 70 0.0 0.0 0.00 0.00 0.00 97 1022.8
20260831084020 70 0.0 0.0 0.00 0.00 0.00 97 1022.8
20260831083021 70 0.0 0.0 0.00 0.00 0.00 97 1022.9
20260831082040 70 0.0 0.0 0.00 0.00 0.00 97 1022.8
20260831081020 70 0.0 0.0 0.00 0.00 0.00 97 1022.9
20260831080024 71 0.0 0.0 0.00 0.00 0.00 97 1022.9
20260831075021 71 0.0 0.0 0.00 0.00 0.00 97 1022.9
20260831074022 71 0.0 0.0 0.00 0.00 0.00 97 1023.0
20260831073101 71 0.0 0.0 0.00 0.00 0.00 97 1023.1
20260831072101 71 0.0 0.0 0.00 0.00 0.00 96 1023.0
20260831071021 71 0.0 0.0 0.00 0.00 0.00 96 1023.1
20260831070041 71 0.0 0.0 0.00 0.00 0.00 96 1023.1
20260831065021 71 0.0 0.0 0.00 0.00 0.00 96 1023.1
20260831064021 71 0.0 0.0 0.00 0.00 0.00 96 1023.4
20260831063021 71 0.0 0.0 0.00 0.00 0.00 96 1023.3
20260831062021 71 0.0 0.0 0.00 0.00 0.00 96 1023.3
20260831061021 72 0.0 0.0 0.00 0.00 0.00 95 1023.3
20260831060023 72 0.0 0.0 0.00 0.00 0.00 95 1023.2
20260831055021 72 0.0 0.0 0.00 0.00 0.00 95 1023.2
20260831054021 72 0.0 0.0 0.00 0.00 0.00 95 1023.3
20260831053021 72 0.0 0.0 0.00 0.00 0.00 95 1023.3
20260831052021 72 0.0 0.0 0.00 0.00 0.00 95 1023.3
20260831051021 72 0.0 0.0 0.00 0.00 0.00 94 1023.3
20260831050021 72 0.0 0.0 0.00 0.00 0.00 94 1023.3
20260831045021 72 0.0 0.0 0.00 0.00 0.00 94 1023.5
20260831044041 73 0.0 0.0 0.00 0.00 0.00 93 1023.5
20260831043101 73 0.0 0.0 0.00 0.00 0.00 93 1023.4
20260831042021 73 0.0 0.0 0.00 0.00 0.00 92 1023.4
20260831040023 73 0.0 0.0 0.00 0.00 0.00 92 1023.5
20260831035021 73 0.0 0.0 0.00 0.00 0.00 92 1023.4
20260831034021 74 0.0 0.0 0.00 0.00 0.00 92 1023.3
20260831033021 74 0.0 0.0 0.00 0.00 0.00 91 1023.3
20260831032021 74 0.0 0.0 0.00 0.00 0.00 91 1023.2
20260831031041 74 0.0 0.0 0.00 0.00 0.00 90 1023.3
20260831030040 75 0.0 0.0 0.00 0.00 0.00 89 1023.3
20260831025041 75 0.0 0.0 0.00 0.00 0.00 89 1023.2
20260831024021 75 0.0 0.0 0.00 0.00 0.00 88 1023.5
20260831023041 75 0.0 0.0 0.00 0.00 0.00 88 1023.4
20260831022020 75 0.0 0.0 0.00 0.00 0.00 88 1023.5
20260831021023 76 0.0 0.0 0.00 0.00 0.00 87 1023.5
20260831020521 76 0.0 0.0 0.00 0.00 0.00 87 1023.4
20260831015521 76 0.0 0.0 0.00 0.00 0.00 86 1023.3
20260831014521 76 0.0 0.0 0.00 0.00 0.00 86 1023.1
20260831013521 76 0.0 0.0 0.00 0.00 0.00 85 1023.2
20260831012521 77 0.0 0.0 0.00 0.00 0.00 84 1023.2
20260831011521 77 0.0 0.0 0.00 0.00 0.00 84 1023.3
20260831010601 77 0.0 0.0 0.00 0.00 0.00 83 1023.0
20260831005520 78 0.0 0.0 0.00 0.00 0.00 82 1023.1
20260831004520 78 0.0 0.0 0.00 0.00 0.00 81 1022.9
20260831003521 78 0.0 0.0 0.00 0.00 0.00 81 1023.0
20260831002523 79 0.0 0.0 0.00 0.00 0.00 80 1023.0
20260831001521 79 0.0 0.0 0.00 0.00 0.00 79 1022.9
20260831000520 80 0.0 0.0 0.00 0.00 0.00 78 1022.9
20260830235520 81 0.0 0.0 0.00 0.00 0.00 77 1022.9
20260830234521 81 0.0 0.0 0.00 0.00 0.00 76 1022.9
20260830233520 82 0.0 0.0 0.00 0.00 0.00 76 1022.9
20260830232521 82 0.0 0.0 0.00 0.00 0.00 76 1023.2
20260830231521 83 0.0 0.0 0.00 0.00 0.00 75 1023.3
20260830230521 83 0.0 1.0 0.00 0.00 0.00 74 1023.3
20260830225521 84 0.0 0.0 0.00 0.00 0.00 74 1023.3
20260830224520 84 0.0 0.0 0.00 0.00 0.00 73 1023.2
20260830223522 84 0.0 1.0 0.00 0.00 0.00 73 1023.2
20260830222520 85 0.0 0.0 0.00 0.00 0.00 73 1023.3
20260830221540 85 0.0 0.0 0.00 0.00 0.00 72 1023.1
20260830220520 85 0.0 4.0 0.00 0.00 0.00 71 1022.9
20260830215520 85 0.0 2.0 0.00 0.00 0.00 71 1022.9
20260830214541 85 0.0 1.0 0.00 0.00 0.00 70 1022.7
20260830213523 86 0.0 1.0 0.00 0.00 0.00 72 1022.8
20260830212520 86 0.0 1.0 0.00 0.00 0.00 72 1022.8
20260830211522 86 0.0 1.0 0.00 0.00 0.00 70 1022.9
20260830211022 87 0.0 1.0 0.00 0.00 0.00 68 1022.9
20260830210022 86 0.0 1.0 0.00 0.00 0.00 70 1022.9
20260830205022 87 0.0 2.0 0.00 0.00 0.00 69 1023.2
20260830204022 86 0.0 2.0 0.00 0.00 0.00 69 1023.2
20260830203023 87 0.0 1.0 0.00 0.00 0.00 69 1023.3
20260830202022 87 0.0 2.0 0.00 0.00 0.00 69 1023.4
20260830201022 87 0.0 0.0 0.00 0.00 0.00 70 1023.6
20260830200022 88 0.0 1.0 0.00 0.00 0.00 69 1023.7
20260830195020 86 0.0 2.0 0.00 0.00 0.00 71 1023.8
20260830194022 86 0.0 1.0 0.00 0.00 0.00 71 1024.0
20260830193022 86 0.0 1.0 0.00 0.00 0.00 72 1024.1
20260830192022 85 0.0 1.0 0.00 0.00 0.00 72 1024.3
20260830191022 85 0.0 0.0 0.00 0.00 0.00 71 1024.3
20260830190022 86 0.0 1.0 0.00 0.00 0.00 72 1024.4
20260830185044 86 0.0 1.0 0.00 0.00 0.00 72 1024.4
20260830184022 86 0.0 0.0 0.00 0.00 0.00 72 1024.7